Showing default

UMBRA-11, 66748

Orbit data source: Space-Track

UMBRA-11, 66748 is a payload satellite owned by Umbra Labs (US) in SSO that was launched on Fri, 28 Nov 2025 UTC via an FALCON 9 launch vehicle from the Air Force Western Test Range (AFWTR). Payload-class satellites include a variety of spacecraft equipped with specific instruments for various scientific and technological missions. These include communications satellites like Starlink; space stations such as the ISS; scientific satellites like the Hubble; Earth observation satellites from companies like Planet Labs, Umbra, and HawkEye 360; GPS; miniature CubeSats for education and research; and military/defense satellites.

Loading next visibility...
Identifier
66748, 2025-276CL
Orbit
SSO
Country
Flag of USUS
Related business
Manufacturer
Umbra Labs
Mission
Operational Commercial Radar Imaging
Bus & Motor
ESPASAT?, Unknown motor
Mass
84 kg wet, 79 kg dry
Launch date (UTC)
2025-11-28 (2 months ago)
Launch vehicle
FALCON 9
Launch site
Air Force Western Test Range (AFWTR)
Object type
Payload
Rocket body
Debris
Shape & HBR
Box + 2 Pan + 1 Dish, 2.0 m
Radar Cross Section
6.513 m²

Expand to show TLE details & history
Last TLE update: 1 day ago

TLE from 1 day ago
0 UMBRA-11
1 66748U 25276CL  26034.15926624  .00020565  00000-0  93921-3 0  9998
2 66748  97.4341 110.1437 0002937  94.7237 265.4334 15.20609314 10088
Epoch: 2026-02-03T03:49Z
TLE epoch observation values (Epoch: 2026-02-03T03:49:20.603Z)
Latitude
0.00002°
Longitude
-80.53635°
Altitude
507.253 km
Speed
7.61 km/s
True Right ascension
07h 20m 34s
True Declination
0° 00' 00"
Sunlit
Object was in full shadow at epoch
Visualization orbit readout
Latitude
Unknown
Longitude
Unknown
Altitude
Unknown
Speed
Unknown
Apparent Right ascension
Unknown
Apparent Declination
Unknown
Sunlit
N/A
Visualization observer readout
Local Sidereal Time
07:44:35
Azimuth
Unknown
Elevation
Unknown
Doppler factor
Unknown
Orbital elements
Apogee altitude
502.988 km
Perigee altitude
498.947 km
Semi-major axis
6,879.105 km
Eccentricity
0.00029
Inclination
97.4341°
RAAN
110.1437°
Arg. of periapsis
94.7237°
True anomaly
265.39985°
Mean anomaly
265.4334°
Eccentric anomaly
265.41663°
Mean motion
3.80404 °/min
Orbital period
94.64 mins
BSTAR
0.00093921
Loading maneuver chart data...
Computing Atmospheric mass density...
Loading historical data...
Loading historical data...
Loading historical data...
Loading historical data...
Loading historical data...
Loading historical data...
Loading historical data...

Documentation

Showing up to 5 results
|